| time (UTC) | temp F | wind direction | speed MPH | gust MPH | rain 1hr in | rain 24hr in | rain mn in | humidity % | barometer mb |
| 20260506071015 | 56 | 87 | 2.0 | 3.0 | 0.00 | 0.00 | 0.00 | 90 | 1009.8 |
| 20260506070522 | 57 | 118 | 0.0 | 2.0 | 0.00 | 0.00 | 0.00 | 90 | 1010.2 |
| 20260506062516 | 57 | 261 | 0.0 | 3.0 | 0.00 | 0.00 | 0.00 | 89 | 1009.8 |
| 20260506062016 | 57 | 121 | 0.0 | 3.0 | 0.00 | 0.00 | 0.00 | 88 | 1010.2 |
| 20260506061516 | 57 | 184 | 0.0 | 2.0 | 0.00 | 0.00 | 0.00 | 87 | 1010.2 |
| 20260506061015 | 57 | 170 | 1.0 | 2.0 | 0.00 | 0.00 | 0.00 | 87 | 1009.8 |
| 20260506060515 | 58 | 151 | 0.0 | 3.0 | 0.00 | 0.00 | 0.00 | 87 | 1009.8 |
| 20260506051018 | 59 | 176 | 2.0 | 4.0 | 0.00 | 0.00 | 0.00 | 83 | 1010.5 |
| 20260506050515 | 60 | 229 | 3.0 | 4.0 | 0.00 | 0.00 | 0.00 | 83 | 1010.2 |
| 20260506045015 | 60 | 176 | 0.0 | 4.0 | 0.00 | 0.00 | 0.00 | 81 | 1010.2 |
| 20260506044513 | 60 | 122 | 0.0 | 3.0 | 0.00 | 0.00 | 0.00 | 81 | 1010.2 |
| 20260506044014 | 60 | 131 | 1.0 | 5.0 | 0.00 | 0.00 | 0.00 | 80 | 1010.2 |
| 20260506043515 | 60 | 308 | 2.0 | 3.0 | 0.00 | 0.00 | 0.00 | 80 | 1010.2 |
| 20260506043014 | 60 | 169 | 2.0 | 5.0 | 0.00 | 0.00 | 0.00 | 79 | 1010.2 |
| 20260506042514 | 60 | 63 | 2.0 | 5.0 | 0.00 | 0.00 | 0.00 | 79 | 1010.2 |
| 20260506042016 | 60 | 168 | 1.0 | 3.0 | 0.00 | 0.00 | 0.00 | 79 | 1010.5 |
| 20260506041515 | 61 | 221 | 2.0 | 4.0 | 0.00 | 0.00 | 0.00 | 78 | 1010.5 |
| 20260506041015 | 61 | 114 | 2.0 | 4.0 | 0.00 | 0.00 | 0.00 | 77 | 1009.8 |
| 20260506040514 | 61 | 66 | 3.0 | 4.0 | 0.00 | 0.00 | 0.00 | 77 | 1010.2 |
| 20260506040014 | 61 | 84 | 0.0 | 4.0 | 0.00 | 0.00 | 0.00 | 77 | 1010.5 |
| 20260506035513 | 61 | 43 | 4.0 | 5.0 | 0.00 | 0.00 | 0.00 | 76 | 1010.2 |
| 20260506035014 | 61 | 224 | 2.0 | 5.0 | 0.00 | 0.00 | 0.00 | 76 | 1010.2 |
| 20260506034514 | 61 | 93 | 1.0 | 5.0 | 0.00 | 0.00 | 0.00 | 76 | 1010.2 |
| 20260506034015 | 62 | 221 | 0.0 | 3.0 | 0.00 | 0.00 | 0.00 | 75 | 1010.2 |
| 20260506033514 | 62 | 175 | 0.0 | 4.0 | 0.00 | 0.00 | 0.00 | 75 | 1010.5 |
| 20260506033013 | 62 | 164 | 1.0 | 2.0 | 0.00 | 0.00 | 0.00 | 74 | 1010.2 |
| 20260506032515 | 62 | 25 | 0.0 | 1.0 | 0.00 | 0.00 | 0.00 | 74 | 1010.2 |
| 20260506032014 | 62 | 89 | 0.0 | 2.0 | 0.00 | 0.00 | 0.00 | 74 | 1010.2 |
| 20260506031513 | 62 | 164 | 0.0 | 1.0 | 0.00 | 0.00 | 0.00 | 73 | 1009.8 |
| 20260506031014 | 62 | 241 | 0.0 | 0.0 | 0.00 | 0.00 | 0.00 | 73 | 1010.2 |
| 20260506030517 | 62 | 184 | 2.0 | 3.0 | 0.00 | 0.00 | 0.00 | 73 | 1010.2 |
| 20260506030016 | 63 | 180 | 0.0 | 2.0 | 0.00 | 0.00 | 0.00 | 72 | 1010.2 |
| 20260506025515 | 63 | 154 | 0.0 | 2.0 | 0.00 | 0.00 | 0.00 | 72 | 1010.2 |
| 20260506025014 | 63 | 22 | 0.0 | 2.0 | 0.00 | 0.00 | 0.00 | 72 | 1010.2 |
| 20260506024514 | 63 | 13 | 2.0 | 2.0 | 0.00 | 0.00 | 0.00 | 71 | 1010.5 |
| 20260506024014 | 63 | 106 | 0.0 | 1.0 | 0.00 | 0.00 | 0.00 | 71 | 1010.2 |
| 20260506023515 | 64 | 333 | 0.0 | 1.0 | 0.00 | 0.00 | 0.00 | 70 | 1010.2 |
| 20260506023014 | 64 | 175 | 0.0 | 2.0 | 0.00 | 0.00 | 0.00 | 70 | 1010.2 |
| 20260506022516 | 64 | 5 | 1.0 | 2.0 | 0.00 | 0.00 | 0.00 | 70 | 1009.8 |
| 20260506022015 | 64 | 17 | 0.0 | 2.0 | 0.00 | 0.00 | 0.00 | 70 | 1010.2 |
| 20260506021517 | 64 | 10 | 0.0 | 1.0 | 0.00 | 0.00 | 0.00 | 70 | 1010.2 |
| 20260506021018 | 64 | 11 | 1.0 | 1.0 | 0.00 | 0.00 | 0.00 | 70 | 1009.8 |
| 20260506020516 | 64 | 6 | 0.0 | 3.0 | 0.00 | 0.00 | 0.00 | 70 | 1009.8 |
| 20260506020014 | 64 | 214 | 0.0 | 1.0 | 0.00 | 0.00 | 0.00 | 69 | 1009.8 |
| 20260506015515 | 64 | 219 | 0.0 | 3.0 | 0.00 | 0.00 | 0.00 | 69 | 1009.8 |
| 20260506015014 | 64 | 168 | 0.0 | 2.0 | 0.00 | 0.00 | 0.00 | 69 | 1009.8 |
| 20260506014517 | 64 | 167 | 1.0 | 3.0 | 0.00 | 0.00 | 0.00 | 69 | 1009.8 |
| 20260506014015 | 64 | 315 | 0.0 | 2.0 | 0.00 | 0.00 | 0.00 | 69 | 1009.8 |
| 20260506013518 | 64 | 186 | 0.0 | 1.0 | 0.00 | 0.00 | 0.00 | 68 | 1009.8 |
| 20260506013014 | 64 | 183 | 1.0 | 2.0 | 0.00 | 0.00 | 0.00 | 68 | 1009.8 |
| 20260506012515 | 64 | 173 | 0.0 | 2.0 | 0.00 | 0.00 | 0.00 | 68 | 1009.5 |
| 20260506012015 | 64 | 77 | 0.0 | 3.0 | 0.00 | 0.00 | 0.00 | 68 | 1009.8 |
| 20260506011515 | 65 | 169 | 0.0 | 2.0 | 0.00 | 0.00 | 0.00 | 67 | 1009.5 |
| 20260506011017 | 65 | 321 | 0.0 | 3.0 | 0.00 | 0.00 | 0.00 | 67 | 1009.5 |
| 20260506010518 | 65 | 154 | 1.0 | 2.0 | 0.00 | 0.00 | 0.00 | 67 | 1009.5 |
| 20260506010014 | 65 | 185 | 0.0 | 4.0 | 0.00 | 0.00 | 0.00 | 67 | 1009.5 |
| 20260506005518 | 65 | 15 | 0.0 | 2.0 | 0.00 | 0.00 | 0.00 | 66 | 1009.1 |
| 20260506005015 | 65 | 205 | 0.0 | 3.0 | 0.00 | 0.00 | 0.00 | 66 | 1009.1 |
| 20260506004518 | 65 | 49 | 0.0 | 1.0 | 0.00 | 0.00 | 0.00 | 66 | 1009.1 |
| 20260506004014 | 65 | 127 | 1.0 | 3.0 | 0.00 | 0.00 | 0.00 | 66 | 1009.5 |
| 20260506003519 | 66 | 351 | 1.0 | 2.0 | 0.00 | 0.00 | 0.00 | 65 | 1009.1 |
| 20260506003014 | 66 | 340 | 0.0 | 1.0 | 0.00 | 0.00 | 0.00 | 65 | 1009.1 |
| 20260506002514 | 66 | 186 | 0.0 | 0.0 | 0.00 | 0.00 | 0.00 | 64 | 1009.1 |
| 20260506002017 | 66 | 23 | 0.0 | 2.0 | 0.00 | 0.00 | 0.00 | 64 | 1008.8 |
| 20260506001028 | 67 | 29 | 2.0 | 3.0 | 0.00 | 0.00 | 0.00 | 63 | 1008.8 |
| 20260506000515 | 67 | 358 | 0.0 | 2.0 | 0.00 | 0.00 | 0.00 | 63 | 1008.8 |
| 20260506000015 | 67 | 13 | 0.0 | 1.0 | 0.00 | 0.00 | 0.00 | 63 | 1008.8 |
| 20260505235514 | 67 | 343 | 0.0 | 3.0 | 0.00 | 0.00 | 0.00 | 62 | 1008.8 |
| 20260505235016 | 68 | 15 | 0.0 | 3.0 | 0.00 | 0.00 | 0.00 | 62 | 1008.8 |
| 20260505234513 | 68 | 10 | 0.0 | 2.0 | 0.00 | 0.00 | 0.00 | 61 | 1008.5 |
| 20260505234014 | 68 | 353 | 0.0 | 4.0 | 0.00 | 0.00 | 0.00 | 61 | 1008.5 |
| 20260505233516 | 69 | 154 | 0.0 | 3.0 | 0.00 | 0.00 | 0.00 | 60 | 1008.5 |
| 20260505233014 | 69 | 6 | 2.0 | 3.0 | 0.00 | 0.00 | 0.00 | 60 | 1008.1 |
| 20260505232514 | 69 | 32 | 0.0 | 3.0 | 0.00 | 0.00 | 0.00 | 60 | 1008.1 |
| 20260505232017 | 69 | 39 | 2.0 | 3.0 | 0.00 | 0.00 | 0.00 | 59 | 1008.1 |
| 20260505231517 | 69 | 48 | 0.0 | 2.0 | 0.00 | 0.00 | 0.00 | 59 | 1008.1 |
| 20260505231014 | 70 | 24 | 0.0 | 3.0 | 0.00 | 0.00 | 0.00 | 58 | 1008.1 |
| 20260505230517 | 70 | 180 | 1.0 | 3.0 | 0.00 | 0.00 | 0.00 | 58 | 1007.8 |
| 20260505230015 | 70 | 72 | 0.0 | 3.0 | 0.00 | 0.00 | 0.00 | 58 | 1007.8 |
| 20260505225514 | 70 | 183 | 3.0 | 4.0 | 0.00 | 0.00 | 0.00 | 57 | 1007.8 |
| 20260505225014 | 70 | 353 | 2.0 | 2.0 | 0.00 | 0.00 | 0.00 | 57 | 1007.8 |
| 20260505224515 | 70 | 8 | 1.0 | 3.0 | 0.00 | 0.00 | 0.00 | 57 | 1007.8 |
| 20260505224014 | 71 | 139 | 2.0 | 3.0 | 0.00 | 0.00 | 0.00 | 57 | 1007.5 |
| 20260505223515 | 71 | 0 | 0.0 | 4.0 | 0.00 | 0.00 | 0.00 | 57 | 1007.5 |
| 20260505223019 | 71 | 169 | 2.0 | 4.0 | 0.00 | 0.00 | 0.00 | 57 | 1008.1 |
| 20260505222513 | 71 | 340 | 0.0 | 4.0 | 0.00 | 0.00 | 0.00 | 56 | 1007.8 |
| 20260505221539 | 72 | 354 | 2.0 | 4.0 | 0.00 | 0.00 | 0.00 | 55 | 1008.1 |
| 20260505221014 | 72 | 4 | 0.0 | 3.0 | 0.00 | 0.00 | 0.00 | 55 | 1007.8 |
| 20260505220516 | 72 | 11 | 0.0 | 4.0 | 0.00 | 0.00 | 0.00 | 55 | 1007.8 |
| 20260505220015 | 73 | 340 | 2.0 | 4.0 | 0.00 | 0.00 | 0.00 | 53 | 1007.8 |
| 20260505215516 | 74 | 50 | 1.0 | 3.0 | 0.00 | 0.00 | 0.00 | 52 | 1007.8 |
| 20260505215018 | 74 | 180 | 0.0 | 4.0 | 0.00 | 0.00 | 0.00 | 53 | 1007.5 |
| 20260505214516 | 74 | 303 | 2.0 | 4.0 | 0.00 | 0.00 | 0.00 | 52 | 1007.8 |
| 20260505214015 | 75 | 124 | 2.0 | 4.0 | 0.00 | 0.00 | 0.00 | 51 | 1007.8 |
| 20260505213519 | 76 | 357 | 2.0 | 4.0 | 0.00 | 0.00 | 0.00 | 50 | 1007.5 |
| 20260505213017 | 76 | 250 | 2.0 | 3.0 | 0.00 | 0.00 | 0.00 | 51 | 1007.8 |
| 20260505212518 | 75 | 50 | 0.0 | 3.0 | 0.00 | 0.00 | 0.00 | 51 | 1007.8 |
| 20260505212017 | 75 | 153 | 2.0 | 4.0 | 0.00 | 0.00 | 0.00 | 52 | 1007.8 |
| 20260505211517 | 76 | 12 | 1.0 | 4.0 | 0.00 | 0.00 | 0.00 | 51 | 1007.8 |
| 20260505211016 | 76 | 299 | 2.0 | 4.0 | 0.00 | 0.00 | 0.00 | 51 | 1007.5 |
| 20260505210518 | 75 | 202 | 0.0 | 2.0 | 0.00 | 0.00 | 0.00 | 52 | 1007.5 |
| 20260505210015 | 75 | 329 | 2.0 | 2.0 | 0.00 | 0.00 | 0.00 | 52 | 1007.5 |
| 20260505205516 | 75 | 177 | 2.0 | 4.0 | 0.00 | 0.00 | 0.00 | 52 | 1007.5 |
| 20260505205016 | 75 | 20 | 2.0 | 4.0 | 0.00 | 0.00 | 0.00 | 52 | 1007.5 |
| 20260505204517 | 75 | 107 | 3.0 | 5.0 | 0.00 | 0.00 | 0.00 | 52 | 1007.5 |
| 20260505204016 | 75 | 6 | 2.0 | 3.0 | 0.00 | 0.00 | 0.00 | 52 | 1007.8 |
| 20260505203514 | 75 | 167 | 2.0 | 3.0 | 0.00 | 0.00 | 0.00 | 52 | 1007.5 |
| 20260505203015 | 75 | 358 | 2.0 | 3.0 | 0.00 | 0.00 | 0.00 | 52 | 1007.8 |
| 20260505202515 | 76 | 141 | 2.0 | 3.0 | 0.00 | 0.00 | 0.00 | 52 | 1007.8 |
| 20260505202016 | 75 | 154 | 0.0 | 3.0 | 0.00 | 0.00 | 0.00 | 52 | 1007.8 |
| 20260505201517 | 76 | 342 | 2.0 | 5.0 | 0.00 | 0.00 | 0.00 | 50 | 1007.8 |
| 20260505201016 | 76 | 350 | 2.0 | 3.0 | 0.00 | 0.00 | 0.00 | 50 | 1008.1 |
| 20260505200516 | 76 | 144 | 0.0 | 4.0 | 0.00 | 0.00 | 0.00 | 51 | 1008.1 |
| 20260505200015 | 76 | 7 | 1.0 | 5.0 | 0.00 | 0.00 | 0.00 | 50 | 1008.1 |
| 20260505195515 | 75 | 44 | 1.0 | 3.0 | 0.00 | 0.00 | 0.00 | 51 | 1008.1 |
| 20260505195017 | 76 | 210 | 3.0 | 3.0 | 0.00 | 0.00 | 0.00 | 51 | 1008.1 |
| 20260505194518 | 76 | 14 | 3.0 | 3.0 | 0.00 | 0.00 | 0.00 | 51 | 1008.1 |
| 20260505194016 | 75 | 33 | 0.0 | 3.0 | 0.00 | 0.00 | 0.00 | 52 | 1008.5 |
| 20260505193516 | 76 | 216 | 1.0 | 4.0 | 0.00 | 0.00 | 0.00 | 51 | 1008.5 |
| 20260505193017 | 76 | 348 | 2.0 | 4.0 | 0.00 | 0.00 | 0.00 | 51 | 1008.5 |
| 20260505192516 | 76 | 179 | 1.0 | 5.0 | 0.00 | 0.00 | 0.00 | 52 | 1008.5 |
| 20260505192015 | 76 | 198 | 0.0 | 3.0 | 0.00 | 0.00 | 0.00 | 51 | 1008.5 |
| 20260505191517 | 75 | 299 | 0.0 | 3.0 | 0.00 | 0.00 | 0.00 | 52 | 1008.5 |
| 20260505191020 | 76 | 353 | 3.0 | 5.0 | 0.00 | 0.00 | 0.00 | 51 | 1008.8 |
| 20260505190516 | 76 | 194 | 0.0 | 3.0 | 0.00 | 0.00 | 0.00 | 50 | 1008.8 |
| 20260505190015 | 77 | 216 | 1.0 | 4.0 | 0.00 | 0.00 | 0.00 | 50 | 1008.8 |
| 20260505185515 | 77 | 78 | 1.0 | 4.0 | 0.00 | 0.00 | 0.00 | 49 | 1008.5 |
| 20260505185017 | 76 | 338 | 2.0 | 5.0 | 0.00 | 0.00 | 0.00 | 50 | 1009.1 |
| 20260505184518 | 77 | 277 | 1.0 | 5.0 | 0.00 | 0.00 | 0.00 | 49 | 1008.8 |
| 20260505184015 | 78 | 27 | 2.0 | 4.0 | 0.00 | 0.00 | 0.00 | 48 | 1009.1 |
| 20260505183516 | 78 | 6 | 3.0 | 6.0 | 0.00 | 0.00 | 0.00 | 47 | 1009.1 |
| 20260505183017 | 78 | 219 | 0.0 | 4.0 | 0.00 | 0.00 | 0.00 | 49 | 1009.1 |
| 20260505182516 | 78 | 147 | 1.0 | 4.0 | 0.00 | 0.00 | 0.00 | 48 | 1008.8 |
| 20260505182020 | 78 | 57 | 0.0 | 4.0 | 0.00 | 0.00 | 0.00 | 48 | 1009.1 |
| 20260505181513 | 79 | 198 | 1.0 | 4.0 | 0.00 | 0.00 | 0.00 | 47 | 1009.1 |
| 20260505181017 | 80 | 1 | 3.0 | 4.0 | 0.00 | 0.00 | 0.00 | 47 | 1009.1 |
| 20260505180516 | 80 | 351 | 2.0 | 3.0 | 0.00 | 0.00 | 0.00 | 46 | 1009.1 |
| 20260505180016 | 79 | 28 | 3.0 | 3.0 | 0.00 | 0.00 | 0.00 | 46 | 1009.1 |
| 20260505175516 | 79 | 317 | 1.0 | 3.0 | 0.00 | 0.00 | 0.00 | 46 | 1009.1 |
| 20260505175018 | 79 | 359 | 0.0 | 4.0 | 0.00 | 0.00 | 0.00 | 45 | 1009.1 |
| 20260505174517 | 79 | 41 | 1.0 | 5.0 | 0.00 | 0.00 | 0.00 | 45 | 1009.1 |
| 20260505174015 | 79 | 347 | 1.0 | 4.0 | 0.00 | 0.00 | 0.00 | 44 | 1009.1 |
| 20260505173515 | 79 | 216 | 2.0 | 4.0 | 0.00 | 0.00 | 0.00 | 46 | 1009.1 |
| 20260505173015 | 78 | 11 | 0.0 | 5.0 | 0.00 | 0.00 | 0.00 | 46 | 1009.1 |
| 20260505172518 | 78 | 179 | 3.0 | 3.0 | 0.00 | 0.00 | 0.00 | 47 | 1009.1 |
| 20260505172016 | 78 | 194 | 2.0 | 6.0 | 0.00 | 0.00 | 0.00 | 46 | 1009.5 |
| 20260505171517 | 77 | 4 | 3.0 | 3.0 | 0.00 | 0.00 | 0.00 | 48 | 1009.1 |
| 20260505171018 | 77 | 357 | 1.0 | 4.0 | 0.00 | 0.00 | 0.00 | 46 | 1009.1 |
| 20260505170516 | 77 | 127 | 0.0 | 3.0 | 0.00 | 0.00 | 0.00 | 48 | 1009.5 |
| 20260505170017 | 77 | 321 | 4.0 | 4.0 | 0.00 | 0.00 | 0.00 | 48 | 1009.5 |
| 20260505165518 | 76 | 202 | 2.0 | 6.0 | 0.00 | 0.00 | 0.00 | 48 | 1009.8 |
| 20260505165015 | 76 | 87 | 2.0 | 6.0 | 0.00 | 0.00 | 0.00 | 48 | 1009.8 |
| 20260505164516 | 76 | 0 | 0.0 | 4.0 | 0.00 | 0.00 | 0.00 | 48 | 1009.8 |
| 20260505164016 | 77 | 197 | 2.0 | 4.0 | 0.00 | 0.00 | 0.00 | 48 | 1009.8 |
| 20260505163516 | 76 | 4 | 3.0 | 3.0 | 0.00 | 0.00 | 0.00 | 49 | 1009.5 |
| 20260505163016 | 76 | 329 | 0.0 | 3.0 | 0.00 | 0.00 | 0.00 | 48 | 1009.8 |
| 20260505162514 | 76 | 275 | 0.0 | 3.0 | 0.00 | 0.00 | 0.00 | 49 | 1009.8 |
| 20260505162016 | 75 | 62 | 2.0 | 2.0 | 0.00 | 0.00 | 0.00 | 50 | 1009.8 |
| 20260505161515 | 74 | 343 | 0.0 | 3.0 | 0.00 | 0.00 | 0.00 | 51 | 1010.2 |
| 20260505161017 | 74 | 301 | 0.0 | 3.0 | 0.00 | 0.00 | 0.00 | 51 | 1010.5 |
| 20260505160517 | 74 | 343 | 3.0 | 3.0 | 0.00 | 0.00 | 0.00 | 51 | 1010.5 |
| 20260505153016 | 72 | 318 | 0.0 | 6.0 | 0.00 | 0.00 | 0.00 | 53 | 1010.8 |
| 20260505152515 | 71 | 290 | 0.0 | 3.0 | 0.00 | 0.00 | 0.00 | 54 | 1010.5 |
| 20260505152016 | 72 | 226 | 0.0 | 5.0 | 0.00 | 0.00 | 0.00 | 54 | 1010.5 |
| 20260505151516 | 72 | 315 | 1.0 | 4.0 | 0.00 | 0.00 | 0.00 | 54 | 1010.8 |
| 20260505151016 | 71 | 122 | 0.0 | 3.0 | 0.00 | 0.00 | 0.00 | 54 | 1010.8 |
| 20260505150519 | 71 | 357 | 2.0 | 2.0 | 0.00 | 0.00 | 0.00 | 55 | 1010.8 |
| 20260505140516 | 66 | 224 | 1.0 | 5.0 | 0.00 | 0.00 | 0.00 | 65 | 1011.2 |
| 20260505125016 | 60 | 330 | 2.0 | 2.0 | 0.00 | 0.00 | 0.00 | 80 | 1011.2 |
| 20260505124515 | 59 | 171 | 3.0 | 3.0 | 0.00 | 0.00 | 0.00 | 82 | 1010.8 |
| 20260505124016 | 59 | 172 | 1.0 | 3.0 | 0.00 | 0.00 | 0.00 | 83 | 1011.2 |
| 20260505123518 | 58 | 341 | 1.0 | 3.0 | 0.00 | 0.00 | 0.00 | 86 | 1010.5 |
| 20260505123017 | 57 | 105 | 2.0 | 3.0 | 0.00 | 0.00 | 0.00 | 87 | 1010.8 |
| 20260505122515 | 56 | 137 | 0.0 | 3.0 | 0.00 | 0.00 | 0.00 | 89 | 1010.5 |
| 20260505122016 | 56 | 76 | 0.0 | 2.0 | 0.00 | 0.00 | 0.00 | 91 | 1011.2 |
| 20260505121516 | 55 | 113 | 0.0 | 2.0 | 0.00 | 0.00 | 0.00 | 91 | 1011.2 |
| 20260505121016 | 55 | 315 | 0.0 | 2.0 | 0.00 | 0.00 | 0.00 | 92 | 1010.8 |
| 20260505120517 | 55 | 120 | 0.0 | 2.0 | 0.00 | 0.00 | 0.00 | 92 | 1010.8 |
| 20260505120016 | 55 | 280 | 0.0 | 2.0 | 0.00 | 0.00 | 0.00 | 95 | 1010.8 |
| 20260505115516 | 55 | 287 | 0.0 | 2.0 | 0.00 | 0.00 | 0.00 | 96 | 1010.8 |
| 20260505115016 | 54 | 5 | 0.0 | 2.0 | 0.00 | 0.00 | 0.00 | 97 | 1011.2 |
| 20260505114519 | 53 | 265 | 2.0 | 2.0 | 0.00 | 0.00 | 0.00 | 98 | 1011.2 |
| 20260505114018 | 53 | 240 | 0.0 | 2.0 | 0.00 | 0.00 | 0.00 | 99 | 1011.2 |
| 20260505113518 | 52 | 2 | 1.0 | 3.0 | 0.00 | 0.00 | 0.00 | 99 | 1011.2 |
| 20260505113017 | 51 | 166 | 1.0 | 2.0 | 0.00 | 0.00 | 0.00 | 99 | 1011.5 |
| 20260505112516 | 50 | 261 | 0.0 | 3.0 | 0.00 | 0.00 | 0.00 | 99 | 1011.2 |
| 20260505112016 | 50 | 204 | 0.0 | 2.0 | 0.00 | 0.00 | 0.00 | 99 | 1011.5 |
| 20260505111516 | 49 | 26 | 1.0 | 2.0 | 0.00 | 0.00 | 0.00 | 99 | 1011.2 |
| 20260505111018 | 48 | 177 | 0.0 | 2.0 | 0.00 | 0.00 | 0.00 | 99 | 1011.5 |
| 20260505110515 | 48 | 7 | 0.0 | 2.0 | 0.00 | 0.00 | 0.00 | 99 | 1011.2 |
| 20260505102013 | 46 | 193 | 0.0 | 2.0 | 0.00 | 0.00 | 0.00 | 98 | 1010.5 |
| 20260505101513 | 46 | 117 | 0.0 | 2.0 | 0.00 | 0.00 | 0.00 | 98 | 1010.2 |
| 20260505101014 | 46 | 142 | 0.0 | 2.0 | 0.00 | 0.00 | 0.00 | 98 | 1010.2 |
| 20260505100513 | 46 | 137 | 0.0 | 2.0 | 0.00 | 0.00 | 0.00 | 98 | 1010.5 |
| 20260505100013 | 46 | 214 | 1.0 | 2.0 | 0.00 | 0.00 | 0.00 | 98 | 1010.2 |
| 20260505095514 | 46 | 135 | 0.0 | 2.0 | 0.00 | 0.00 | 0.00 | 98 | 1010.2 |
| 20260505095014 | 46 | 142 | 1.0 | 2.0 | 0.00 | 0.00 | 0.00 | 98 | 1010.2 |
| 20260505094514 | 46 | 58 | 1.0 | 2.0 | 0.00 | 0.00 | 0.00 | 98 | 1009.8 |
| 20260505094014 | 46 | 107 | 1.0 | 2.0 | 0.00 | 0.00 | 0.00 | 97 | 1009.8 |
| 20260505093514 | 46 | 154 | 2.0 | 2.0 | 0.00 | 0.00 | 0.00 | 97 | 1010.2 |
| 20260505093014 | 46 | 138 | 2.0 | 3.0 | 0.00 | 0.00 | 0.00 | 97 | 1009.8 |
| 20260505092513 | 46 | 255 | 1.0 | 2.0 | 0.00 | 0.00 | 0.00 | 97 | 1010.2 |
| 20260505092014 | 46 | 24 | 0.0 | 2.0 | 0.00 | 0.00 | 0.00 | 97 | 1010.2 |
| 20260505091513 | 46 | 283 | 0.0 | 3.0 | 0.00 | 0.00 | 0.00 | 97 | 1009.8 |
| 20260505091013 | 46 | 64 | 0.0 | 2.0 | 0.00 | 0.00 | 0.00 | 97 | 1009.8 |
| 20260505090513 | 46 | 183 | 2.0 | 3.0 | 0.00 | 0.00 | 0.00 | 97 | 1010.2 |
| 20260505090014 | 47 | 263 | 1.0 | 3.0 | 0.00 | 0.00 | 0.00 | 97 | 1009.8 |
| 20260505085513 | 47 | 212 | 2.0 | 3.0 | 0.00 | 0.00 | 0.00 | 97 | 1009.8 |
| 20260505085014 | 47 | 166 | 1.0 | 2.0 | 0.00 | 0.00 | 0.00 | 96 | 1009.8 |
| 20260505084515 | 47 | 119 | 0.0 | 2.0 | 0.00 | 0.00 | 0.00 | 96 | 1010.2 |
| 20260505084013 | 47 | 26 | 1.0 | 3.0 | 0.00 | 0.00 | 0.00 | 96 | 1010.2 |
| 20260505083513 | 47 | 185 | 1.0 | 2.0 | 0.00 | 0.00 | 0.00 | 96 | 1009.8 |
| 20260505083014 | 47 | 339 | 2.0 | 2.0 | 0.00 | 0.00 | 0.00 | 96 | 1010.2 |
| 20260505082513 | 47 | 106 | 0.0 | 2.0 | 0.00 | 0.00 | 0.00 | 96 | 1009.8 |
| 20260505082019 | 47 | 135 | 0.0 | 3.0 | 0.00 | 0.00 | 0.00 | 96 | 1009.8 |
| 20260505081515 | 47 | 110 | 0.0 | 2.0 | 0.00 | 0.00 | 0.00 | 96 | 1009.8 |
| 20260505081017 | 47 | 220 | 0.0 | 2.0 | 0.00 | 0.00 | 0.00 | 96 | 1009.8 |
| 20260505080518 | 47 | 139 | 1.0 | 2.0 | 0.00 | 0.00 | 0.00 | 96 | 1009.8 |
| 20260505080016 | 47 | 86 | 1.0 | 2.0 | 0.00 | 0.00 | 0.00 | 96 | 1009.8 |
| 20260505075518 | 47 | 51 | 0.0 | 2.0 | 0.00 | 0.00 | 0.00 | 96 | 1009.8 |
| 20260505075015 | 47 | 76 | 0.0 | 2.0 | 0.00 | 0.00 | 0.00 | 96 | 1010.2 |
| 20260505074514 | 47 | 190 | 1.0 | 3.0 | 0.00 | 0.00 | 0.00 | 96 | 1009.8 |
| 20260505074018 | 47 | 192 | 1.0 | 2.0 | 0.00 | 0.00 | 0.00 | 96 | 1009.8 |
| 20260505073514 | 47 | 150 | 0.0 | 2.0 | 0.00 | 0.00 | 0.00 | 96 | 1009.8 |
| 20260505073018 | 47 | 163 | 1.0 | 2.0 | 0.00 | 0.00 | 0.00 | 95 | 1009.8 |
| 20260505072515 | 47 | 102 | 0.0 | 2.0 | 0.00 | 0.00 | 0.00 | 95 | 1009.8 |
| 20260505072015 | 47 | 133 | 1.0 | 2.0 | 0.00 | 0.00 | 0.00 | 95 | 1010.2 |
| 20260505071515 | 47 | 29 | 0.0 | 2.0 | 0.00 | 0.00 | 0.00 | 95 | 1009.8 |